Flag for U.S.A. Weather past 2 weeks in Pittsburgh, Pennsylvania, U.S.A.

Now
39 °F

Clear.


Feels Like: 33 °F
Forecast: 36 / 67 °F
Wind: 8 mph from South

Location: Allegheny County Airport

Current Time: Apr 2, 2015 at 6:09:58 AM

Latest Report: Apr 2, 2015 at 4:53 AM


Visibility: 10 mi

Pressure: 30.08 "Hg

Humidity: 53%

Dew point: 23 °F

Location of PittsburghLocation

Historic Weather in Pittsburgh — Graph

°F

Pittsburgh temperature yesterday

Maximum temperature yesterday: 58 °F (at 5:53 PM)
Minimum temperature yesterday: 28 °F (at 6:53 AM)
Average temperature yesterday: 43 °F

Past Weeks' High & Low Weather Summary

 TemperatureHumidityPressure
High67 °F (Mar 25, 5:53 PM)92% (Mar 20, 10:53 AM)30.41 "Hg (Mar 20, 10:53 AM)
Low14 °F (Mar 28, 6:53 AM)15% (Mar 19, 5:53 PM)29.62 "Hg (Mar 31, 1:53 PM)
Average37 °F54%30.10 "Hg
* Reported Mar 18 4:53 AM — Apr 2 4:53 AM, Pittsburgh, Weather by CustomWeather, © 2015

Note: Actual official high and low records may vary slightly from our data, if they occured in-between our weather recording intervals... More about our weather records

Advertising

Pittsburgh weather history for previous 24 hours

 ConditionsComfort  
Time TempWeatherWind HumidityBarometerVisibility
4:53 AM
Thu, Apr 2
39 °FClear.8 mph53%30.08 "Hg10 mi
3:53 AM42 °FClear.8 mph45%30.08 "Hg10 mi
2:53 AM45 °FClear.7 mph37%30.10 "Hg10 mi
1:53 AM45 °FClear.8 mph38%30.12 "Hg10 mi
12:53 AM45 °FClear.8 mph40%30.14 "Hg10 mi
11:53 PM
Wed, Apr 1
47 °FClear.7 mph36%30.16 "Hg10 mi
10:53 PM49 °FClear.6 mph33%30.16 "Hg10 mi
9:53 PM51 °FClear.6 mph31%30.17 "Hg10 mi
8:53 PM53 °FClear.5 mph27%30.16 "Hg10 mi
7:53 PM54 °FSunny.3 mph26%30.14 "Hg10 mi
6:53 PM56 °FSunny.6 mph24%30.14 "Hg10 mi
5:53 PM58 °FSunny.3 mph23%30.14 "Hg10 mi
4:53 PM57 °FPassing clouds.9 mph23%30.14 "Hg10 mi
3:53 PM55 °FPassing clouds.8 mph27%30.16 "Hg10 mi
2:53 PM53 °FPartly sunny.6 mph28%30.17 "Hg10 mi
1:53 PM51 °FPartly sunny.No wind31%30.18 "Hg10 mi
12:53 PM49 °FPartly sunny.6 mph32%30.19 "Hg10 mi
11:53 AM46 °FSunny.5 mph33%30.18 "Hg10 mi
10:53 AM42 °FSunny.7 mph41%30.18 "Hg10 mi
9:53 AM38 °FSunny.No wind51%30.16 "Hg10 mi
8:53 AM33 °FSunny.No wind61%30.14 "Hg10 mi
7:53 AM29 °FClear.3 mph72%30.12 "Hg10 mi
6:53 AM28 °FClear.No wind72%30.09 "Hg10 mi
Weather by CustomWeather, © 2015

See weather overviewHow to use our weather pages